Time,TemperatureF,DewpointF,PressureIn,WindDirection,WindDirectionDegrees,WindSpeedMPH,WindSpeedGustMPH,Humidity,HourlyPrecipIn,Conditions,Clouds,dailyrainin,SolarRadiationWatts/m^2,SoftwareType,DateUTC
2013-05-31 00:00:00,59.0,55.4,29.49,SSE,152,0.0,5.0,88,0.00,,,0.00,0,Wunderground v.1.15,2013-05-31 05:00:00,
2013-05-31 00:10:00,58.9,55.4,29.49,SSE,153,0.0,5.0,88,0.00,,,0.00,0,Wunderground v.1.15,2013-05-31 05:10:00,
2013-05-31 00:19:00,58.9,55.7,29.49,SSE,162,0.0,5.0,89,0.00,,,0.00,0,Wunderground v.1.15,2013-05-31 05:19:00,
2013-05-31 00:25:00,59.0,55.8,29.49,SSE,162,0.0,5.0,89,0.00,,,0.00,0,Wunderground v.1.15,2013-05-31 05:25:00,
2013-05-31 00:35:00,59.1,55.5,29.49,SSE,162,0.0,5.0,88,0.00,,,0.00,0,Wunderground v.1.15,2013-05-31 05:35:00,
2013-05-31 00:40:00,59.1,55.5,29.49,SSE,162,0.0,5.0,88,0.00,,,0.00,0,Wunderground v.1.15,2013-05-31 05:40:00,
2013-05-31 00:50:00,59.2,55.3,29.51,SSE,162,0.0,5.0,87,0.00,,,0.00,0,Wunderground v.1.15,2013-05-31 05:50:00,
2013-05-31 00:55:00,59.2,55.3,29.51,SSE,155,0.0,5.0,87,0.00,,,0.00,0,Wunderground v.1.15,2013-05-31 05:55:00,
2013-05-31 01:00:00,59.1,55.2,29.51,SSE,162,1.0,1.0,87,0.00,,,0.00,0,Wunderground v.1.15,2013-05-31 06:00:00,
2013-05-31 01:10:00,59.4,55.5,29.51,South,173,1.0,1.0,87,0.00,,,0.00,0,Wunderground v.1.15,2013-05-31 06:10:00,
2013-05-31 01:20:00,59.6,55.4,29.51,SSE,157,2.0,2.0,86,0.00,,,0.00,0,Wunderground v.1.15,2013-05-31 06:20:00,
2013-05-31 01:30:00,59.8,55.3,29.51,South,180,1.0,5.0,85,0.00,,,0.00,0,Wunderground v.1.15,2013-05-31 06:30:00,
2013-05-31 01:35:00,60.0,55.2,29.51,SSE,163,2.0,5.0,84,0.00,,,0.00,0,Wunderground v.1.15,2013-05-31 06:35:00,
2013-05-31 01:40:00,60.2,55.3,29.51,South,181,2.0,2.0,84,0.00,,,0.00,0,Wunderground v.1.15,2013-05-31 06:40:00,
2013-05-31 01:45:00,60.2,55.0,29.52,South,170,1.0,5.0,83,0.00,,,0.00,0,Wunderground v.1.15,2013-05-31 06:45:00,
2013-05-31 01:50:00,60.2,55.0,29.52,South,171,0.0,5.0,83,0.00,,,0.00,0,Wunderground v.1.15,2013-05-31 06:50:00,
2013-05-31 01:55:00,60.2,55.0,29.52,South,173,0.0,5.0,83,0.00,,,0.00,0,Wunderground v.1.15,2013-05-31 06:55:00,
2013-05-31 02:00:00,60.2,54.7,29.51,SE,141,1.0,1.0,82,0.00,,,0.00,0,Wunderground v.1.15,2013-05-31 07:00:00,
2013-05-31 02:10:00,60.1,54.6,29.51,SSW,193,0.0,5.0,82,0.00,,,0.00,0,Wunderground v.1.15,2013-05-31 07:10:00,
2013-05-31 02:20:00,60.2,54.3,29.51,SW,230,1.0,1.0,81,0.00,,,0.00,0,Wunderground v.1.15,2013-05-31 07:20:00,
2013-05-31 02:30:00,60.1,54.2,29.51,SW,215,0.0,5.0,81,0.00,,,0.00,0,Wunderground v.1.15,2013-05-31 07:30:00,
2013-05-31 02:40:00,59.9,54.1,29.51,SSE,163,0.0,5.0,81,0.00,,,0.00,0,Wunderground v.1.15,2013-05-31 07:40:00,
2013-05-31 02:50:00,59.8,54.0,29.51,SSE,167,0.0,5.0,81,0.00,,,0.00,0,Wunderground v.1.15,2013-05-31 07:50:00,
2013-05-31 03:00:00,59.7,53.5,29.50,SSE,161,1.0,1.0,80,0.00,,,0.00,0,Wunderground v.1.15,2013-05-31 08:00:00,
2013-05-31 03:10:00,59.7,53.5,29.50,SSE,167,0.0,5.0,80,0.00,,,0.00,0,Wunderground v.1.15,2013-05-31 08:10:00,
2013-05-31 03:20:00,59.6,53.4,29.49,SSE,154,0.0,5.0,80,0.00,,,0.00,0,Wunderground v.1.15,2013-05-31 08:20:00,
2013-05-31 03:30:00,59.4,53.6,29.50,SSE,154,0.0,5.0,81,0.00,,,0.00,0,Wunderground v.1.15,2013-05-31 08:30:00,
2013-05-31 03:35:00,59.1,53.3,29.50,SSE,154,0.0,5.0,81,0.00,,,0.00,0,Wunderground v.1.15,2013-05-31 08:35:00,
2013-05-31 03:45:00,58.9,53.4,29.50,SSE,154,0.0,5.0,82,0.00,,,0.00,0,Wunderground v.1.15,2013-05-31 08:45:00,
2013-05-31 03:55:00,58.4,53.3,29.50,SSE,153,0.0,5.0,83,0.00,,,0.00,0,Wunderground v.1.15,2013-05-31 08:55:00,
2013-05-31 04:00:00,58.2,53.1,29.50,SSE,154,0.0,5.0,83,0.00,,,0.00,0,Wunderground v.1.15,2013-05-31 09:00:00,
2013-05-31 04:10:00,58.0,53.2,29.50,SSE,154,0.0,5.0,84,0.00,,,0.00,0,Wunderground v.1.15,2013-05-31 09:10:00,
2013-05-31 04:20:00,57.7,53.2,29.51,SSE,154,0.0,5.0,85,0.00,,,0.00,0,Wunderground v.1.15,2013-05-31 09:20:00,
2013-05-31 04:25:00,57.8,53.3,29.51,SSE,154,0.0,5.0,85,0.00,,,0.00,0,Wunderground v.1.15,2013-05-31 09:25:00,
2013-05-31 04:35:00,57.8,53.3,29.50,SSE,161,0.0,5.0,85,0.00,,,0.00,0,Wunderground v.1.15,2013-05-31 09:35:00,
2013-05-31 04:40:00,57.9,53.7,29.50,SSE,162,0.0,5.0,86,0.00,,,0.00,0,Wunderground v.1.15,2013-05-31 09:40:00,
2013-05-31 04:50:00,58.0,53.5,29.49,SSE,162,0.0,0.0,85,0.00,,,0.00,0,Wunderground v.1.15,2013-05-31 09:50:00,
2013-05-31 05:00:00,57.8,53.3,29.48,SSE,162,0.0,0.0,85,0.00,,,0.00,0,Wunderground v.1.15,2013-05-31 10:00:00,
2013-05-31 05:10:00,57.5,53.0,29.48,SSE,162,0.0,0.0,85,0.00,,,0.00,0,Wunderground v.1.15,2013-05-31 10:10:00,
2013-05-31 05:20:00,57.2,53.0,29.49,SSE,162,0.0,0.0,86,0.00,,,0.00,0,Wunderground v.1.15,2013-05-31 10:20:00,
2013-05-31 05:25:00,57.1,53.0,29.49,SSE,162,0.0,0.0,86,0.00,,,0.00,0,Wunderground v.1.15,2013-05-31 10:25:00,
2013-05-31 05:35:00,57.1,53.0,29.48,SSE,162,0.0,0.0,86,0.00,,,0.00,0,Wunderground v.1.15,2013-05-31 10:35:00,
2013-05-31 05:45:00,57.2,53.0,29.49,SSE,162,0.0,4.0,86,0.00,,,0.00,0,Wunderground v.1.15,2013-05-31 10:45:00,
2013-05-31 05:55:00,57.0,52.9,29.49,SSE,162,0.0,4.0,86,0.00,,,0.00,0,Wunderground v.1.15,2013-05-31 10:55:00,
2013-05-31 06:05:00,56.5,52.4,29.49,SSE,162,0.0,4.0,86,0.00,,,0.00,9,Wunderground v.1.15,2013-05-31 11:05:00,
2013-05-31 06:15:00,56.4,52.6,29.49,SSE,166,0.0,4.0,87,0.00,,,0.00,14,Wunderground v.1.15,2013-05-31 11:15:00,
2013-05-31 06:25:00,56.4,52.9,29.49,SSE,166,0.0,4.0,88,0.00,,,0.00,19,Wunderground v.1.15,2013-05-31 11:25:00,
2013-05-31 06:35:00,56.5,53.0,29.49,SSE,166,0.0,4.0,88,0.00,,,0.00,25,Wunderground v.1.15,2013-05-31 11:35:00,
2013-05-31 06:40:00,56.6,53.1,29.49,SSE,166,0.0,4.0,88,0.00,,,0.00,26,Wunderground v.1.15,2013-05-31 11:40:00,
2013-05-31 06:50:00,56.6,53.1,29.49,SSE,166,0.0,4.0,88,0.00,,,0.00,33,Wunderground v.1.15,2013-05-31 11:50:00,
2013-05-31 07:00:00,56.6,53.4,29.49,SSE,166,0.0,4.0,89,0.00,,,0.00,54,Wunderground v.1.15,2013-05-31 12:00:00,
2013-05-31 07:05:00,56.7,53.5,29.49,SSE,166,0.0,4.0,89,0.00,,,0.00,35,Wunderground v.1.15,2013-05-31 12:05:00,
2013-05-31 07:15:00,57.0,53.5,29.50,SSE,166,0.0,4.0,88,0.00,,,0.00,151,Wunderground v.1.15,2013-05-31 12:15:00,
2013-05-31 07:25:00,58.2,54.3,29.50,SSE,166,0.0,4.0,87,0.00,,,0.00,67,Wunderground v.1.15,2013-05-31 12:25:00,
2013-05-31 07:35:00,59.3,54.8,29.51,SSE,167,1.0,4.0,85,0.00,,,0.00,174,Wunderground v.1.15,2013-05-31 12:35:00,
2013-05-31 07:45:00,60.3,55.1,29.51,SSW,192,0.0,4.0,83,0.00,,,0.00,281,Wunderground v.1.15,2013-05-31 12:45:00,
2013-05-31 07:50:00,60.8,54.9,29.51,SSW,192,0.0,4.0,81,0.00,,,0.00,297,Wunderground v.1.15,2013-05-31 12:50:00,
2013-05-31 07:55:00,61.5,54.9,29.51,SSE,164,0.0,4.0,79,0.00,,,0.00,313,Wunderground v.1.15,2013-05-31 12:55:00,
2013-05-31 08:05:00,62.8,54.8,29.51,SSE,161,1.0,5.0,75,0.00,,,0.00,341,Wunderground v.1.15,2013-05-31 13:05:00,
2013-05-31 08:14:00,64.0,54.8,29.52,SSE,167,0.0,4.0,72,0.00,,,0.00,373,Wunderground v.1.15,2013-05-31 13:14:00,
2013-05-31 08:20:00,64.6,54.6,29.52,SSE,167,0.0,4.0,70,0.00,,,0.00,388,Wunderground v.1.15,2013-05-31 13:20:00,
2013-05-31 08:30:00,65.2,54.0,29.53,SSE,167,0.0,4.0,67,0.00,,,0.00,418,Wunderground v.1.15,2013-05-31 13:30:00,
2013-05-31 08:40:00,65.7,53.6,29.53,SSE,156,0.0,4.0,65,0.00,,,0.00,448,Wunderground v.1.15,2013-05-31 13:40:00,
2013-05-31 08:50:00,66.3,54.2,29.53,SSE,167,0.0,4.0,65,0.00,,,0.00,480,Wunderground v.1.15,2013-05-31 13:50:00,
2013-05-31 09:00:00,66.8,52.0,29.53,South,175,0.0,4.0,59,0.00,,,0.00,513,Wunderground v.1.15,2013-05-31 14:00:00,
2013-05-31 09:05:00,66.9,50.2,29.53,WSW,254,0.0,4.0,55,0.00,,,0.00,526,Wunderground v.1.15,2013-05-31 14:05:00,
2013-05-31 09:10:00,67.2,51.9,29.53,West,267,0.0,4.0,58,0.00,,,0.00,540,Wunderground v.1.15,2013-05-31 14:10:00,
2013-05-31 09:20:00,67.9,52.1,29.54,WSW,254,0.0,4.0,57,0.00,,,0.00,570,Wunderground v.1.15,2013-05-31 14:20:00,
2013-05-31 09:30:00,68.2,52.4,29.54,WSW,240,0.0,4.0,57,0.00,,,0.00,601,Wunderground v.1.15,2013-05-31 14:30:00,
2013-05-31 09:40:00,68.4,51.6,29.54,SW,217,0.0,4.0,55,0.00,,,0.00,626,Wunderground v.1.15,2013-05-31 14:40:00,
2013-05-31 09:50:00,69.2,51.8,29.54,SW,219,0.0,4.0,54,0.00,,,0.00,654,Wunderground v.1.15,2013-05-31 14:50:00,
2013-05-31 10:00:00,69.4,51.5,29.54,WSW,241,1.0,1.0,53,0.00,,,0.00,682,Wunderground v.1.15,2013-05-31 15:00:00,
2013-05-31 10:10:00,69.6,51.7,29.54,WSW,249,0.0,4.0,53,0.00,,,0.00,707,Wunderground v.1.15,2013-05-31 15:10:00,
2013-05-31 10:19:00,70.4,51.9,29.54,South,175,0.0,4.0,52,0.00,,,0.00,733,Wunderground v.1.15,2013-05-31 15:19:00,
2013-05-31 10:25:00,70.4,52.4,29.54,South,175,0.0,4.0,53,0.00,,,0.00,745,Wunderground v.1.15,2013-05-31 15:25:00,
2013-05-31 10:35:00,70.4,51.9,29.54,WSW,244,0.0,5.0,52,0.00,,,0.00,770,Wunderground v.1.15,2013-05-31 15:35:00,
2013-05-31 10:45:00,71.5,52.4,29.54,South,190,0.0,4.0,51,0.00,,,0.00,793,Wunderground v.1.15,2013-05-31 15:45:00,
2013-05-31 10:50:00,71.8,53.2,29.54,South,186,0.0,4.0,52,0.00,,,0.00,803,Wunderground v.1.15,2013-05-31 15:50:00,
2013-05-31 10:59:00,72.2,53.1,29.54,SW,219,0.0,4.0,51,0.00,,,0.00,823,Wunderground v.1.15,2013-05-31 15:59:00,
2013-05-31 11:05:00,71.8,52.7,29.54,WSW,252,1.0,4.0,51,0.00,,,0.00,835,Wunderground v.1.15,2013-05-31 16:05:00,
2013-05-31 11:15:00,72.2,52.5,29.55,SE,144,1.0,2.0,50,0.00,,,0.00,849,Wunderground v.1.15,2013-05-31 16:15:00,
2013-05-31 11:25:00,72.6,51.8,29.55,WSW,253,2.0,4.0,48,0.00,,,0.00,867,Wunderground v.1.15,2013-05-31 16:25:00,
2013-05-31 11:35:00,73.5,53.7,29.55,South,190,1.0,3.0,50,0.00,,,0.00,884,Wunderground v.1.15,2013-05-31 16:35:00,
2013-05-31 11:45:00,74.0,54.7,29.55,WSW,248,1.0,3.0,51,0.00,,,0.00,902,Wunderground v.1.15,2013-05-31 16:45:00,
2013-05-31 11:55:00,74.3,53.9,29.55,SW,236,2.0,4.0,49,0.00,,,0.00,914,Wunderground v.1.15,2013-05-31 16:55:00,
2013-05-31 12:00:00,75.2,55.3,29.55,South,188,1.0,4.0,50,0.00,,,0.00,919,Wunderground v.1.15,2013-05-31 17:00:00,
2013-05-31 12:05:00,74.8,53.2,29.55,SSE,158,1.0,4.0,47,0.00,,,0.00,926,Wunderground v.1.15,2013-05-31 17:05:00,
2013-05-31 12:15:00,74.7,52.5,29.54,WSW,242,2.0,7.0,46,0.00,,,0.00,939,Wunderground v.1.15,2013-05-31 17:15:00,
2013-05-31 12:25:00,74.7,53.1,29.54,WSW,251,3.0,6.0,47,0.00,,,0.00,944,Wunderground v.1.15,2013-05-31 17:25:00,
2013-05-31 12:35:00,75.8,54.7,29.54,SW,236,2.0,4.0,48,0.00,,,0.00,954,Wunderground v.1.15,2013-05-31 17:35:00,
2013-05-31 12:45:00,76.6,54.3,29.54,South,182,1.0,2.0,46,0.00,,,0.00,956,Wunderground v.1.15,2013-05-31 17:45:00,
2013-05-31 12:50:00,76.5,54.2,29.54,South,178,2.0,2.0,46,0.00,,,0.00,962,Wunderground v.1.15,2013-05-31 17:50:00,
2013-05-31 12:55:00,75.8,53.5,29.54,SW,227,2.0,3.0,46,0.00,,,0.00,962,Wunderground v.1.15,2013-05-31 17:55:00,
2013-05-31 13:05:00,77.5,53.9,29.54,WSW,245,2.0,4.0,44,0.00,,,0.00,963,Wunderground v.1.15,2013-05-31 18:05:00,
2013-05-31 13:10:00,76.4,54.1,29.54,WNW,293,3.0,5.0,46,0.00,,,0.00,962,Wunderground v.1.15,2013-05-31 18:10:00,
2013-05-31 13:20:00,77.7,56.4,29.54,SE,134,3.0,4.0,48,0.00,,,0.00,965,Wunderground v.1.15,2013-05-31 18:20:00,
2013-05-31 13:30:00,76.5,54.8,29.53,WSW,246,3.0,4.0,47,0.00,,,0.00,963,Wunderground v.1.15,2013-05-31 18:30:00,
2013-05-31 13:35:00,76.4,54.1,29.53,SSE,157,3.0,4.0,46,0.00,,,0.00,962,Wunderground v.1.15,2013-05-31 18:35:00,
2013-05-31 13:45:00,77.4,55.6,29.52,WSW,248,2.0,6.0,47,0.00,,,0.00,962,Wunderground v.1.15,2013-05-31 18:45:00,
2013-05-31 13:50:00,76.4,54.7,29.52,SSW,197,3.0,4.0,47,0.00,,,0.00,963,Wunderground v.1.15,2013-05-31 18:50:00,
2013-05-31 14:00:00,77.5,54.5,29.52,SW,227,2.0,2.0,45,0.00,,,0.00,960,Wunderground v.1.15,2013-05-31 19:00:00,
2013-05-31 14:10:00,77.5,54.5,29.52,SSE,165,3.0,4.0,45,0.00,,,0.00,949,Wunderground v.1.15,2013-05-31 19:10:00,
2013-05-31 14:20:00,78.7,54.3,29.52,SE,134,2.0,6.0,43,0.00,,,0.00,977,Wunderground v.1.15,2013-05-31 19:20:00,
2013-05-31 14:30:00,77.8,55.4,29.51,SSW,197,2.0,2.0,46,0.00,,,0.00,1014,Wunderground v.1.15,2013-05-31 19:30:00,
2013-05-31 14:40:00,78.8,55.0,29.51,SSW,213,1.0,4.0,44,0.00,,,0.00,1021,Wunderground v.1.15,2013-05-31 19:40:00,
2013-05-31 14:49:00,77.3,53.7,29.51,SW,233,4.0,4.0,44,0.00,,,0.00,698,Wunderground v.1.15,2013-05-31 19:49:00,
2013-05-31 14:55:00,77.7,54.0,29.51,SSE,156,4.0,4.0,44,0.00,,,0.00,888,Wunderground v.1.15,2013-05-31 19:55:00,
2013-05-31 15:00:00,78.9,55.1,29.52,WSW,243,3.0,3.0,44,0.00,,,0.00,997,Wunderground v.1.15,2013-05-31 20:00:00,
2013-05-31 15:10:00,77.7,55.3,29.52,SSE,164,3.0,3.0,46,0.00,,,0.00,886,Wunderground v.1.15,2013-05-31 20:10:00,
2013-05-31 15:15:00,78.9,54.5,29.51,WSW,242,3.0,4.0,43,0.00,,,0.00,733,Wunderground v.1.15,2013-05-31 20:15:00,
2013-05-31 15:25:00,77.4,53.8,29.51,WSW,251,5.0,6.0,44,0.00,,,0.00,679,Wunderground v.1.15,2013-05-31 20:25:00,
2013-05-31 15:34:00,77.8,55.4,29.51,West,277,2.0,4.0,46,0.00,,,0.00,443,Wunderground v.1.15,2013-05-31 20:34:00,
2013-05-31 15:40:00,78.5,54.1,29.51,SW,225,2.0,2.0,43,0.00,,,0.00,865,Wunderground v.1.15,2013-05-31 20:40:00,
2013-05-31 15:50:00,77.2,54.2,29.50,SSW,212,4.0,9.0,45,0.00,,,0.00,919,Wunderground v.1.15,2013-05-31 20:50:00,
2013-05-31 16:00:00,77.9,56.0,29.50,SW,228,4.0,4.0,47,0.00,,,0.00,896,Wunderground v.1.15,2013-05-31 21:00:00,
2013-05-31 16:09:00,77.0,54.0,29.50,South,182,4.0,9.0,45,0.00,,,0.00,297,Wunderground v.1.15,2013-05-31 21:09:00,
2013-05-31 16:15:00,76.6,54.3,29.49,SE,128,4.0,9.0,46,0.00,,,0.00,281,Wunderground v.1.15,2013-05-31 21:15:00,
2013-05-31 16:25:00,76.8,54.5,29.49,SSW,213,5.0,5.0,46,0.00,,,0.00,371,Wunderground v.1.15,2013-05-31 21:25:00,
2013-05-31 16:35:00,77.4,55.6,29.50,South,180,2.0,4.0,47,0.00,,,0.00,482,Wunderground v.1.15,2013-05-31 21:35:00,
2013-05-31 16:44:00,79.3,56.7,29.48,South,184,0.0,4.0,46,0.00,,,0.00,724,Wunderground v.1.15,2013-05-31 21:44:00,
2013-05-31 16:50:00,78.9,53.9,29.48,SW,214,1.0,4.0,42,0.00,,,0.00,700,Wunderground v.1.15,2013-05-31 21:50:00,
2013-05-31 17:00:00,79.0,52.6,29.49,SW,216,3.0,3.0,40,0.00,,,0.00,279,Wunderground v.1.15,2013-05-31 22:00:00,
2013-05-31 17:05:00,78.5,51.5,29.49,SW,227,4.0,4.0,39,0.00,,,0.00,255,Wunderground v.1.15,2013-05-31 22:05:00,
2013-05-31 17:14:00,78.0,51.7,29.50,West,270,4.0,4.0,40,0.00,,,0.00,348,Wunderground v.1.15,2013-05-31 22:14:00,
2013-05-31 17:20:00,78.6,51.6,29.50,SSE,163,4.0,4.0,39,0.00,,,0.00,345,Wunderground v.1.15,2013-05-31 22:20:00,
2013-05-31 17:30:00,79.3,50.8,29.49,SW,225,2.0,9.0,37,0.00,,,0.00,192,Wunderground v.1.15,2013-05-31 22:30:00,
2013-05-31 17:40:00,79.1,49.8,29.49,WSW,244,4.0,4.0,36,0.00,,,0.00,304,Wunderground v.1.15,2013-05-31 22:40:00,
2013-05-31 17:45:00,79.2,49.9,29.49,SW,229,4.0,9.0,36,0.00,,,0.00,160,Wunderground v.1.15,2013-05-31 22:45:00,
2013-05-31 17:50:00,79.1,50.6,29.49,WSW,249,4.0,7.0,37,0.00,,,0.00,162,Wunderground v.1.15,2013-05-31 22:50:00,
2013-05-31 17:55:00,79.1,49.8,29.49,SW,225,4.0,7.0,36,0.00,,,0.00,167,Wunderground v.1.15,2013-05-31 22:55:00,
2013-05-31 18:05:00,79.0,49.8,29.48,SE,142,3.0,4.0,36,0.00,,,0.00,72,Wunderground v.1.15,2013-05-31 23:05:00,
2013-05-31 18:15:00,78.6,49.4,29.47,SW,223,3.0,4.0,36,0.00,,,0.00,88,Wunderground v.1.15,2013-05-31 23:15:00,
2013-05-31 18:20:00,78.5,49.3,29.47,SSW,200,3.0,4.0,36,0.00,,,0.00,81,Wunderground v.1.15,2013-05-31 23:20:00,
2013-05-31 18:30:00,78.2,49.1,29.47,WSW,250,2.0,4.0,36,0.00,,,0.00,83,Wunderground v.1.15,2013-05-31 23:30:00,
2013-05-31 18:40:00,78.5,48.6,29.47,SSE,159,3.0,4.0,35,0.00,,,0.00,62,Wunderground v.1.15,2013-05-31 23:40:00,
2013-05-31 18:50:00,78.4,48.5,29.47,WSW,250,4.0,4.0,35,0.00,,,0.00,46,Wunderground v.1.15,2013-05-31 23:50:00,
2013-05-31 19:00:00,77.9,48.0,29.47,SW,236,2.0,4.0,35,0.00,,,0.00,90,Wunderground v.1.15,2013-06-01 00:00:00,
2013-05-31 19:10:00,77.8,48.7,29.47,SSE,168,1.0,1.0,36,0.00,,,0.00,53,Wunderground v.1.15,2013-06-01 00:10:00,
2013-05-31 19:20:00,77.3,49.0,29.47,SSW,204,1.0,1.0,37,0.00,,,0.00,70,Wunderground v.1.15,2013-06-01 00:20:00,
2013-05-31 19:30:00,76.7,48.5,29.47,SW,230,1.0,1.0,37,0.00,,,0.00,63,Wunderground v.1.15,2013-06-01 00:30:00,
2013-05-31 19:35:00,76.7,49.2,29.47,South,173,1.0,4.0,38,0.00,,,0.00,88,Wunderground v.1.15,2013-06-01 00:35:00,
2013-05-31 19:44:00,76.7,49.2,29.48,SW,215,1.0,4.0,38,0.00,,,0.00,76,Wunderground v.1.15,2013-06-01 00:44:00,
2013-05-31 19:50:00,76.4,49.6,29.48,SSW,209,1.0,4.0,39,0.00,,,0.00,76,Wunderground v.1.15,2013-06-01 00:50:00,
2013-05-31 19:55:00,76.2,49.4,29.48,West,262,1.0,4.0,39,0.00,,,0.00,33,Wunderground v.1.15,2013-06-01 00:55:00,
2013-05-31 20:05:00,75.6,50.2,29.48,West,262,0.0,4.0,41,0.00,,,0.00,28,Wunderground v.1.15,2013-06-01 01:05:00,
2013-05-31 20:15:00,75.4,50.7,29.49,WSW,237,2.0,4.0,42,0.00,,,0.00,23,Wunderground v.1.15,2013-06-01 01:15:00,
2013-05-31 20:25:00,75.4,49.4,29.49,WNW,294,1.0,4.0,40,0.00,,,0.00,18,Wunderground v.1.15,2013-06-01 01:25:00,
2013-05-31 20:35:00,75.2,49.2,29.49,WSW,257,1.0,4.0,40,0.00,,,0.00,11,Wunderground v.1.15,2013-06-01 01:35:00,
2013-05-31 20:45:00,74.5,49.2,29.50,WSW,252,1.0,4.0,41,0.00,,,0.00,0,Wunderground v.1.15,2013-06-01 01:45:00,
2013-05-31 20:49:00,74.1,49.5,29.50,WSW,253,0.0,4.0,42,0.00,,,0.00,0,Wunderground v.1.15,2013-06-01 01:49:00,
2013-05-31 20:55:00,73.8,49.3,29.50,West,259,0.0,4.0,42,0.00,,,0.00,0,Wunderground v.1.15,2013-06-01 01:55:00,
2013-05-31 21:00:00,73.5,49.0,29.49,WNW,287,0.0,4.0,42,0.00,,,0.00,0,Wunderground v.1.15,2013-06-01 02:00:00,
2013-05-31 21:10:00,73.1,49.3,29.49,WNW,288,0.0,4.0,43,0.00,,,0.00,0,Wunderground v.1.15,2013-06-01 02:10:00,
2013-05-31 21:20:00,72.7,48.9,29.50,West,261,2.0,4.0,43,0.00,,,0.00,0,Wunderground v.1.15,2013-06-01 02:20:00,
2013-05-31 21:25:00,72.6,48.8,29.50,WNW,297,3.0,4.0,43,0.00,,,0.00,0,Wunderground v.1.15,2013-06-01 02:25:00,
2013-05-31 21:35:00,72.2,48.5,29.50,WNW,284,2.0,4.0,43,0.00,,,0.00,0,Wunderground v.1.15,2013-06-01 02:35:00,
2013-05-31 21:45:00,71.8,48.7,29.51,WSW,250,2.0,6.0,44,0.00,,,0.00,0,Wunderground v.1.15,2013-06-01 02:45:00,
2013-05-31 21:54:00,71.3,48.9,29.51,WNW,298,1.0,4.0,45,0.00,,,0.00,0,Wunderground v.1.15,2013-06-01 02:54:00,
2013-05-31 22:00:00,71.1,48.7,29.52,West,281,2.0,2.0,45,0.00,,,0.00,0,Wunderground v.1.15,2013-06-01 03:00:00,
2013-05-31 22:10:00,70.4,48.0,29.52,NW,315,1.0,1.0,45,0.00,,,0.00,0,Wunderground v.1.15,2013-06-01 03:10:00,
2013-05-31 22:20:00,69.9,48.2,29.53,West,280,1.0,4.0,46,0.00,,,0.00,0,Wunderground v.1.15,2013-06-01 03:20:00,
2013-05-31 22:30:00,69.3,47.6,29.55,West,274,1.0,1.0,46,0.00,,,0.00,0,Wunderground v.1.15,2013-06-01 03:30:00,
2013-05-31 22:40:00,68.8,47.7,29.55,West,265,1.0,1.0,47,0.00,,,0.00,0,Wunderground v.1.15,2013-06-01 03:40:00,
2013-05-31 22:50:00,68.2,47.2,29.56,WSW,258,0.0,4.0,47,0.00,,,0.00,0,Wunderground v.1.15,2013-06-01 03:50:00,
2013-05-31 23:00:00,67.7,46.7,29.56,WSW,255,0.0,4.0,47,0.00,,,0.00,0,Wunderground v.1.15,2013-06-01 04:00:00,
2013-05-31 23:04:00,67.3,46.9,29.56,SW,229,0.0,4.0,48,0.00,,,0.00,0,Wunderground v.1.15,2013-06-01 04:04:00,
2013-05-31 23:10:00,67.2,47.4,29.56,SW,229,0.0,4.0,49,0.00,,,0.00,0,Wunderground v.1.15,2013-06-01 04:10:00,
2013-05-31 23:20:00,66.7,47.5,29.57,SW,231,0.0,4.0,50,0.00,,,0.00,0,Wunderground v.1.15,2013-06-01 04:20:00,
2013-05-31 23:25:00,66.4,47.7,29.57,SW,231,0.0,4.0,51,0.00,,,0.00,0,Wunderground v.1.15,2013-06-01 04:25:00,
2013-05-31 23:30:00,66.1,47.4,29.56,SW,232,0.0,4.0,51,0.00,,,0.00,0,Wunderground v.1.15,2013-06-01 04:30:00,
2013-05-31 23:40:00,65.7,47.6,29.56,WSW,250,2.0,4.0,52,0.00,,,0.00,0,Wunderground v.1.15,2013-06-01 04:40:00,
2013-05-31 23:50:00,64.9,47.9,29.57,West,263,1.0,1.0,54,0.00,,,0.00,0,Wunderground v.1.15,2013-06-01 04:50:00,